EZY38MA EGGD-EGNS

Flight info

Callsign EZY38MA
Flight time 0h 42m
Altitude 23000
Route BCN P69 DIZIM N864 WAL M146 LUSOD DCT IOM
Aircraft A20N/M-SDE2E3FGHIJ1RWXYZ/LB1G1

Departure

Time 2026-04-26 19:11
Airport Bristol Airport (EGGD)

Arrival

Time 2026-04-26 19:53
Airport Isle of Man Airport (EGNS)
Time Latitude Longitude Altitude Speed Heading
2026-04-26 18:43 51.38555 -2.71016 594 ft 0 kts 356°
2026-04-26 18:59 51.38547 -2.71016 595 ft 2 kts 356°
2026-04-26 18:59 51.38532 -2.71014 595 ft 2 kts 356°
2026-04-26 18:59 51.38518 -2.71013 596 ft 1 kts 356°
2026-04-26 19:00 51.38508 -2.71012 596 ft 2 kts 349°
2026-04-26 19:00 51.38494 -2.71004 597 ft 2 kts 332°
2026-04-26 19:00 51.38482 -2.70991 597 ft 2 kts 316°
2026-04-26 19:00 51.38472 -2.70973 597 ft 2 kts 301°
2026-04-26 19:01 51.38466 -2.70952 598 ft 2 kts 286°
2026-04-26 19:01 51.38464 -2.70928 598 ft 1 kts 270°
2026-04-26 19:01 51.38464 -2.70918 598 ft 1 kts 264°
2026-04-26 19:01 51.38464 -2.70915 598 ft 0 kts 266°
2026-04-26 19:04 51.38464 -2.70928 598 ft 4 kts 269°
2026-04-26 19:04 51.38462 -2.71005 598 ft 9 kts 266°
2026-04-26 19:04 51.38457 -2.71131 598 ft 13 kts 266°
2026-04-26 19:05 51.38444 -2.71466 598 ft 15 kts 267°
2026-04-26 19:05 51.38438 -2.71644 598 ft 16 kts 266°
2026-04-26 19:05 51.38432 -2.71820 601 ft 15 kts 267°
2026-04-26 19:06 51.38432 -2.71998 603 ft 16 kts 270°
2026-04-26 19:06 51.38425 -2.72191 605 ft 17 kts 266°
2026-04-26 19:06 51.38417 -2.72383 609 ft 16 kts 266°
2026-04-26 19:06 51.38410 -2.72560 610 ft 15 kts 266°
2026-04-26 19:07 51.38404 -2.72736 610 ft 16 kts 266°
2026-04-26 19:07 51.38395 -2.72936 606 ft 19 kts 266°
2026-04-26 19:07 51.38387 -2.73146 599 ft 0 kts 266°
2026-04-26 19:07 51.38387 -2.73147 599 ft 0 kts 266°
2026-04-26 19:09 51.38387 -2.73167 599 ft 5 kts 266°
2026-04-26 19:09 51.38373 -2.73279 595 ft 14 kts 243°
2026-04-26 19:09 51.38288 -2.73346 593 ft 12 kts 178°
2026-04-26 19:10 51.38221 -2.73310 595 ft 8 kts 120°
2026-04-26 19:10 51.38216 -2.73206 601 ft 19 kts 86°
2026-04-26 19:10 51.38242 -2.72546 616 ft 99 kts 86°
2026-04-26 19:10 51.38302 -2.71082 705 ft 152 kts 86°
2026-04-26 19:11 51.38375 -2.69378 1358 ft 155 kts 87°
2026-04-26 19:11 51.38444 -2.67724 2178 ft 152 kts 86°
2026-04-26 19:11 51.38510 -2.66080 2843 ft 151 kts 86°
2026-04-26 19:11 51.38558 -2.64313 3223 ft 170 kts 87°
2026-04-26 19:12 51.38598 -2.62323 3619 ft 191 kts 87°
2026-04-26 19:12 51.38657 -2.60055 4092 ft 213 kts 86°
2026-04-26 19:12 51.38742 -2.57583 4656 ft 231 kts 82°
2026-04-26 19:12 51.39341 -2.55137 5188 ft 249 kts 49°
2026-04-26 19:13 51.40774 -2.53535 5723 ft 263 kts 18°
2026-04-26 19:13 51.42590 -2.53387 5935 ft 267 kts 345°
2026-04-26 19:13 51.44190 -2.54885 5996 ft 269 kts 311°
2026-04-26 19:13 51.45133 -2.57459 6000 ft 270 kts 295°
2026-04-26 19:14 51.45922 -2.60174 5998 ft 270 kts 297°
2026-04-26 19:14 51.46831 -2.62842 6106 ft 275 kts 301°
2026-04-26 19:14 51.47832 -2.65499 6843 ft 280 kts 302°
2026-04-26 19:14 51.48173 -2.66370 7133 ft 278 kts 302°
2026-04-26 19:15 51.49902 -2.70676 8077 ft 277 kts 302°
2026-04-26 19:15 51.50953 -2.73251 8273 ft 278 kts 303°
2026-04-26 19:15 51.52017 -2.75850 8263 ft 278 kts 303°
2026-04-26 19:15 51.53081 -2.78445 8294 ft 277 kts 303°
2026-04-26 19:16 51.54142 -2.81034 8283 ft 277 kts 303°
2026-04-26 19:16 51.55201 -2.83618 8281 ft 276 kts 303°
2026-04-26 19:16 51.56255 -2.86190 8280 ft 276 kts 303°
2026-04-26 19:16 51.57314 -2.88779 8280 ft 276 kts 303°
2026-04-26 19:17 51.58364 -2.91346 8279 ft 276 kts 303°
2026-04-26 19:17 51.59423 -2.93937 8277 ft 276 kts 303°
2026-04-26 19:17 51.60478 -2.96521 8277 ft 276 kts 302°
2026-04-26 19:17 51.61524 -2.99085 8276 ft 276 kts 302°
2026-04-26 19:18 51.62576 -3.01667 8273 ft 276 kts 302°
2026-04-26 19:18 51.63618 -3.04225 8274 ft 276 kts 302°
2026-04-26 19:18 51.64681 -3.06841 8336 ft 281 kts 302°
2026-04-26 19:18 51.65756 -3.09485 8987 ft 287 kts 302°
2026-04-26 19:19 51.66824 -3.12113 10007 ft 284 kts 302°
2026-04-26 19:19 51.67905 -3.14782 10844 ft 288 kts 301°
2026-04-26 19:19 51.69014 -3.17530 11356 ft 303 kts 301°
2026-04-26 19:19 51.70177 -3.20410 12063 ft 310 kts 301°
2026-04-26 19:20 51.71463 -3.23219 12857 ft 316 kts 314°
2026-04-26 19:20 51.72635 -3.24613 13358 ft 322 kts 330°
2026-04-26 19:20 51.75554 -3.25655 14401 ft 332 kts
2026-04-26 19:20 51.77802 -3.25146 15182 ft 334 kts
2026-04-26 19:21 51.80125 -3.24510 15917 ft 338 kts
2026-04-26 19:21 51.82418 -3.23900 16612 ft 342 kts
2026-04-26 19:21 51.84763 -3.23303 17298 ft 345 kts
2026-04-26 19:21 51.87135 -3.22713 17985 ft 348 kts
2026-04-26 19:22 51.89534 -3.22119 18655 ft 351 kts
2026-04-26 19:22 51.91948 -3.21524 19291 ft 355 kts
2026-04-26 19:22 51.94392 -3.20923 19930 ft 359 kts
2026-04-26 19:22 51.96868 -3.20312 20546 ft 363 kts
2026-04-26 19:23 51.99357 -3.19695 21139 ft 367 kts
2026-04-26 19:23 52.01905 -3.19062 21740 ft 370 kts
2026-04-26 19:23 52.04463 -3.18552 22322 ft 373 kts
2026-04-26 19:23 52.07045 -3.18279 22885 ft 376 kts
2026-04-26 19:24 52.09680 -3.18078 23209 ft 379 kts
2026-04-26 19:24 52.12312 -3.17888 23255 ft 378 kts
2026-04-26 19:24 52.17576 -3.17492 23257 ft 378 kts
2026-04-26 19:25 52.20194 -3.17293 23256 ft 378 kts
2026-04-26 19:25 52.21063 -3.17226 23255 ft 378 kts
2026-04-26 19:25 52.25455 -3.16889 23255 ft 378 kts
2026-04-26 19:25 52.28052 -3.16687 23256 ft 378 kts
2026-04-26 19:26 52.30677 -3.16486 23259 ft 378 kts
2026-04-26 19:26 52.33312 -3.16282 23258 ft 378 kts
2026-04-26 19:26 52.35927 -3.16080 23257 ft 377 kts
2026-04-26 19:26 52.38566 -3.15875 23256 ft 377 kts
2026-04-26 19:27 52.41171 -3.15672 23256 ft 377 kts
2026-04-26 19:27 52.43789 -3.15469 23259 ft 376 kts
2026-04-26 19:27 52.46379 -3.15265 23259 ft 375 kts
2026-04-26 19:27 52.48972 -3.15064 23258 ft 375 kts
2026-04-26 19:28 52.51563 -3.14860 23258 ft 375 kts
2026-04-26 19:28 52.54167 -3.14657 23256 ft 374 kts
2026-04-26 19:28 52.56746 -3.14454 23255 ft 375 kts
2026-04-26 19:28 52.59366 -3.14250 23260 ft 374 kts
2026-04-26 19:29 52.61961 -3.14046 23261 ft 375 kts
2026-04-26 19:29 52.64566 -3.13843 23259 ft 375 kts
2026-04-26 19:29 52.67148 -3.13639 23259 ft 375 kts
2026-04-26 19:29 52.69746 -3.13473 23255 ft 374 kts 358°
2026-04-26 19:30 52.72329 -3.13568 23259 ft 373 kts 353°
2026-04-26 19:30 52.74878 -3.13972 23260 ft 371 kts 350°
2026-04-26 19:30 52.77431 -3.14555 23259 ft 370 kts 349°
2026-04-26 19:30 52.79115 -3.14961 23258 ft 369 kts 348°
2026-04-26 19:31 52.82527 -3.15790 23257 ft 369 kts 349°
2026-04-26 19:31 52.85037 -3.16388 23257 ft 369 kts 349°
2026-04-26 19:31 52.87588 -3.16932 23258 ft 369 kts 352°
2026-04-26 19:31 52.90148 -3.17199 23259 ft 371 kts 356°
2026-04-26 19:32 52.92722 -3.17160 23263 ft 372 kts 359°
2026-04-26 19:32 52.95313 -3.16967 23261 ft 373 kts
2026-04-26 19:32 52.97911 -3.16744 23263 ft 373 kts
2026-04-26 19:32 53.00480 -3.16529 23262 ft 373 kts
2026-04-26 19:33 53.03056 -3.16319 23259 ft 373 kts
2026-04-26 19:33 53.05631 -3.16113 23260 ft 373 kts
2026-04-26 19:33 53.08233 -3.15904 23174 ft 373 kts
2026-04-26 19:33 53.10825 -3.15694 22912 ft 370 kts
2026-04-26 19:34 53.13374 -3.15488 22653 ft 368 kts
2026-04-26 19:34 53.15906 -3.15288 22390 ft 365 kts
2026-04-26 19:34 53.18427 -3.15091 22136 ft 363 kts
2026-04-26 19:34 53.20932 -3.14894 21889 ft 362 kts
2026-04-26 19:35 53.23418 -3.14699 21634 ft 360 kts
2026-04-26 19:35 53.25936 -3.14499 21380 ft 358 kts
2026-04-26 19:35 53.28388 -3.14304 21045 ft 357 kts
2026-04-26 19:35 53.30857 -3.14108 20665 ft 354 kts
2026-04-26 19:36 53.33299 -3.13914 20261 ft 353 kts
2026-04-26 19:36 53.34130 -3.13848 20107 ft 352 kts
2026-04-26 19:36 53.38170 -3.13885 19384 ft 346 kts 345°
2026-04-26 19:36 53.40316 -3.15456 18977 ft 340 kts 323°
2026-04-26 19:37 53.42058 -3.18114 18598 ft 337 kts 313°
2026-04-26 19:37 53.43678 -3.20933 18162 ft 336 kts 313°
2026-04-26 19:37 53.45281 -3.23723 17748 ft 334 kts 313°
2026-04-26 19:37 53.46892 -3.26506 17330 ft 333 kts 313°
2026-04-26 19:38 53.48496 -3.29264 16912 ft 332 kts 314°
2026-04-26 19:38 53.50099 -3.32014 16485 ft 331 kts 314°
2026-04-26 19:38 53.51717 -3.34788 16083 ft 330 kts 314°
2026-04-26 19:38 53.53311 -3.37519 15654 ft 329 kts 314°
2026-04-26 19:39 53.54886 -3.40223 15253 ft 328 kts 314°
2026-04-26 19:39 53.56473 -3.42950 14844 ft 326 kts 313°
2026-04-26 19:39 53.57973 -3.45794 14447 ft 324 kts 308°
2026-04-26 19:39 53.59335 -3.48808 14043 ft 321 kts 305°
2026-04-26 19:40 53.60606 -3.51814 13648 ft 320 kts 304°
2026-04-26 19:40 53.61887 -3.54875 13263 ft 317 kts 304°
2026-04-26 19:40 53.63144 -3.57876 12915 ft 314 kts 304°
2026-04-26 19:40 53.64396 -3.60858 12547 ft 311 kts 304°
2026-04-26 19:41 53.65640 -3.63819 12164 ft 310 kts 304°
2026-04-26 19:41 53.66866 -3.66745 11786 ft 308 kts 303°
2026-04-26 19:41 53.68104 -3.69706 11388 ft 306 kts 303°
2026-04-26 19:41 53.68505 -3.70665 11261 ft 306 kts 303°
2026-04-26 19:42 53.70531 -3.75515 10636 ft 303 kts 303°
2026-04-26 19:42 53.71720 -3.78369 10318 ft 297 kts 303°
2026-04-26 19:42 53.72897 -3.81193 10218 ft 285 kts 303°
2026-04-26 19:42 53.74009 -3.83867 9886 ft 282 kts 303°
2026-04-26 19:43 53.75139 -3.86590 9532 ft 280 kts 303°
2026-04-26 19:43 53.76247 -3.89262 9187 ft 278 kts 303°
2026-04-26 19:43 53.77353 -3.91936 8846 ft 275 kts 303°
2026-04-26 19:43 53.78440 -3.94562 8513 ft 273 kts 303°
2026-04-26 19:44 53.79511 -3.97152 8193 ft 271 kts 303°
2026-04-26 19:44 53.80590 -3.99767 7865 ft 268 kts 303°
2026-04-26 19:44 53.81633 -4.02297 7550 ft 266 kts 303°
2026-04-26 19:44 53.82697 -4.04878 7228 ft 264 kts 303°
2026-04-26 19:45 53.83728 -4.07384 6904 ft 262 kts 303°
2026-04-26 19:45 53.84771 -4.09916 6585 ft 260 kts 304°
2026-04-26 19:45 53.86036 -4.12068 6195 ft 263 kts 323°
2026-04-26 19:45 53.87588 -4.13699 5761 ft 266 kts 328°
2026-04-26 19:46 53.89203 -4.15274 5362 ft 267 kts 328°
2026-04-26 19:46 53.90787 -4.16859 5011 ft 265 kts 327°
2026-04-26 19:46 53.92343 -4.18467 4681 ft 262 kts 326°
2026-04-26 19:46 53.93876 -4.20090 4365 ft 259 kts 326°
2026-04-26 19:47 53.95395 -4.21721 4050 ft 257 kts 326°
2026-04-26 19:47 53.95884 -4.22250 3949 ft 256 kts 326°
2026-04-26 19:47 53.98348 -4.24928 3436 ft 252 kts 326°
2026-04-26 19:47 53.99813 -4.26524 3219 ft 244 kts 326°
2026-04-26 19:48 54.01194 -4.28029 3184 ft 230 kts 326°
2026-04-26 19:48 54.02504 -4.29461 3153 ft 222 kts 326°
2026-04-26 19:48 54.03811 -4.30896 3118 ft 222 kts 325°
2026-04-26 19:48 54.05102 -4.32314 3032 ft 222 kts 325°
2026-04-26 19:49 54.06379 -4.33717 2887 ft 219 kts 325°
2026-04-26 19:49 54.07652 -4.35113 2708 ft 212 kts 325°
2026-04-26 19:49 54.08854 -4.36435 2476 ft 203 kts 325°
2026-04-26 19:49 54.10017 -4.37715 2234 ft 198 kts 325°
2026-04-26 19:50 54.11099 -4.39076 2042 ft 190 kts 307°
2026-04-26 19:50 54.11527 -4.41060 2015 ft 175 kts 268°
2026-04-26 19:50 54.11172 -4.43051 2076 ft 177 kts 248°
2026-04-26 19:50 54.10702 -4.44940 1976 ft 168 kts 250°
2026-04-26 19:51 54.10342 -4.46766 1750 ft 160 kts 255°
2026-04-26 19:51 54.10065 -4.48547 1549 ft 153 kts 258°
2026-04-26 19:51 54.09843 -4.50267 1348 ft 141 kts 259°
2026-04-26 19:51 54.09654 -4.51824 1116 ft 130 kts 258°
2026-04-26 19:52 54.09459 -4.53330 938 ft 129 kts 258°
2026-04-26 19:52 54.09275 -4.54803 793 ft 129 kts 257°
2026-04-26 19:52 54.09085 -4.56302 650 ft 129 kts 257°
2026-04-26 19:52 54.08894 -4.57794 456 ft 128 kts 257°
2026-04-26 19:53 54.08720 -4.59266 282 ft 128 kts 257°
2026-04-26 19:53 54.08533 -4.60746 120 ft 127 kts 257°
2026-04-26 19:53 54.08351 -4.62180 39 ft 112 kts 261°
2026-04-26 19:53 54.08252 -4.62991 44 ft 40 kts 258°
2026-04-26 19:54 54.08226 -4.63287 48 ft 11 kts 298°
2026-04-26 19:54 54.08286 -4.63337 51 ft 9 kts 350°
2026-04-26 19:54 54.08344 -4.63358 54 ft 8 kts 345°
2026-04-26 19:54 54.08409 -4.63387 57 ft 10 kts 348°
2026-04-26 19:55 54.08482 -4.63357 59 ft 11 kts 34°
2026-04-26 19:55 54.08535 -4.63348 62 ft 7 kts 321°
2026-04-26 19:55 54.08555 -4.63407 62 ft 5 kts 260°
2026-04-26 19:55 54.08541 -4.63440 62 ft 1 kts 224°
2026-04-26 19:56 54.08538 -4.63444 62 ft 0 kts 224°